Farmingdale, NY

8:02 PM EDT on June 21, 2018 (GMT -0400)
Republic

Weather History for KFRG - September, 2017

Change the Weather History Date:

Tuesday, September 12, 2017

  Actual Average Record
Temperature  
Mean Temperature 67 °F -  
Max Temperature 77 °F 74 °F 91 °F (2005)
Min Temperature 57 °F 59 °F 48 °F (2006)
Cooling Degree Days 2    
Growing Degree Days 17 (Base 50)    
Moisture  
Dew Point 57 °F    
Average Humidity 70    
Maximum Humidity 87    
Minimum Humidity 50    
Precipitation  
Precipitation 0.00 in - - ()
Sea Level Pressure  
Sea Level Pressure 30.01 in    
Wind  
Wind Speed 4 mph (West)    
Max Wind Speed 10 mph    
Max Gust Speed -    
Visibility 10 miles    
Events      
Averages and records for this station are not official NWS values.
T = Trace of Precipitation, MM = Missing Value Source: NWS Daily Summary

Daily Weather History Graph

Daily Weather History Graph

Search for Another Location

Airport or City:

Astronomy

Sep. 12, 2017 Rise Set
Actual Time 6:31 AM EDT 7:07 PM EDT
Civil Twilight 6:04 AM EDT 7:34 PM EDT
Nautical Twilight 5:31 AM EDT 8:07 PM EDT
Astronomical Twilight 4:57 AM EDT 8:40 PM EDT
Moon 11:32 PM EDT (9/12) 1:15 PM EDT (9/12)
Length of Visible Light 13h 30m
Length of Day
12h 35m
Waning Gibbous, 57% of the Moon is Illuminated
Sep 12
Waning Gibbous
Sep 13
Last Quarter
Sep 20
New
Sep 27
First Quarter
Oct 5
Full

Hourly Weather History & Observations

Time (EDT) Temp. Dew Point Humidity Pressure Visibility Wind Dir Wind Speed Gust Speed Precip Events Conditions
12:53 AM 63.0 °F 52.0 °F 67% 30.11 in 10.0 mi Calm Calm - N/A   Clear
1:53 AM 61.0 °F 52.0 °F 72% 30.10 in 10.0 mi West 3.5 mph - N/A   Clear
2:53 AM 61.0 °F 53.1 °F 75% 30.07 in 10.0 mi NNW 3.5 mph - N/A   Clear
3:53 AM 60.1 °F 53.1 °F 78% 30.07 in 10.0 mi NNW 3.5 mph - N/A   Clear
4:53 AM 57.9 °F 53.1 °F 84% 30.06 in 10.0 mi NNW 3.5 mph - N/A   Clear
5:53 AM 57.9 °F 53.1 °F 84% 30.05 in 10.0 mi North 3.5 mph - N/A   Clear
6:53 AM 57.0 °F 53.1 °F 87% 30.06 in 10.0 mi North 4.6 mph - N/A   Clear
7:53 AM 61.0 °F 55.0 °F 81% 30.05 in 10.0 mi NNE 6.9 mph - N/A   Clear
8:53 AM 66.0 °F 55.9 °F 70% 30.04 in 10.0 mi North 5.8 mph - N/A   Clear
9:53 AM 69.1 °F 57.0 °F 65% 30.04 in 10.0 mi North 4.6 mph - N/A   Clear
10:53 AM 72.0 °F 57.0 °F 59% 30.04 in 10.0 mi Variable 3.5 mph - N/A   Clear
11:53 AM 73.9 °F 55.9 °F 53% 30.03 in 10.0 mi SE 3.5 mph - N/A   Clear
12:53 PM 77.0 °F 57.9 °F 52% 30.01 in 10.0 mi Variable 3.5 mph - N/A   Clear
1:53 PM 75.0 °F 57.9 °F 55% 30.00 in 10.0 mi SSW 9.2 mph - N/A   Clear
2:53 PM 75.0 °F 59.0 °F 57% 29.98 in 10.0 mi SSW 10.4 mph - N/A   Clear
3:53 PM 75.0 °F 57.9 °F 55% 29.96 in 10.0 mi SSW 9.2 mph - N/A   Clear
4:53 PM 75.0 °F 55.0 °F 50% 29.95 in 10.0 mi SSW 4.6 mph - N/A   Clear
5:53 PM 73.9 °F 57.0 °F 55% 29.94 in 10.0 mi SSW 6.9 mph - N/A   Clear
6:53 PM 71.1 °F 61.0 °F 70% 29.93 in 10.0 mi SW 6.9 mph - N/A   Clear
7:53 PM 69.1 °F 61.0 °F 75% 29.93 in 10.0 mi SW 8.1 mph - N/A   Clear
8:53 PM 68.0 °F 61.0 °F 78% 29.93 in 10.0 mi WSW 5.8 mph - N/A   Clear
9:53 PM 66.9 °F 62.1 °F 84% 29.93 in 10.0 mi WSW 4.6 mph - N/A   Clear
10:53 PM 64.9 °F 61.0 °F 87% 29.93 in 10.0 mi WSW 4.6 mph - N/A   Clear
11:53 PM 64.9 °F 61.0 °F 87% 29.92 in 10.0 mi WSW 4.6 mph - N/A   Clear